sat.trackr.live / text

‹ back to catalog

STARLINK-34941

NORAD 65210 · 2025-176N

PAYLOAD ACTIVE UNKNOWN

§ Identity

Operator
Country
US
Launch date
2025-08-14
Launch site
AFETR
Launch vehicle
Mass (kg)
RCS (m²)

Purposes: comms

External: N2YO · Heavens-Above · Gunter

§ Orbital elements

Epoch: 2026-05-25T00:35:19.932864Z

Period
93.85 min
Inclination
53.1605°
Eccentricity
0.0001317
Mean motion
15.34405989 rev/d
Perigee alt
461.8 km
Apogee alt
463.6 km
Semi-major
6,840.8 km
B*
3.8610e-4
RAAN
157.7369°
Arg perigee
88.3668°
Mean anomaly
271.7485°
Rev number
4,481

§ Raw data

STARLINK-349411 65210U 25176N   26145.02453626  .00012693  00000+0  38610-3 0  99922 65210  53.1605 157.7369 0001317  88.3668 271.7485 15.34405989 44814

JSON: /api/v1/satellites/65210 · /tle

For live sub-satellite position, see the globe view (requires WebGL).

§ Visibility from observer

Set your observer location to see the next 7 days of passes ≥ 10°. The values pass through the URL so the page stays shareable.

No JS? Fill the form by hand. The geolocation button needs JavaScript.